Simultaneous Nadir Overpasses (SNOs) Predictions

Prediction of SNOs between LANDSAT-8 and METOP-B Satellite Orbit:

Table of predicted SNOs for the next 14.0 days since TLE Epoch: 5/29/2021
Index Date (LANDSAT-8) Time (LANDSAT-8) Lat,Lon (LANDSAT-8) SZA (LANDSAT-8 ) Date (METOP-B) Time (METOP-B) Lat,Lon (METOP-B) SZA (METOP-B ) Distance(km) Time Diff (sec)
1 05/31/2021 18:38:38 81.09, -60.18 61.25 05/31/2021 18:37:27 81.10, -60.01 61.24 3.12 71
2 05/31/2021 19:28:04 -81.11, 107.76 118.71 05/31/2021 19:28:07 -81.11, 107.77 118.71 0.44 3
3 06/03/2021 14:12:54 81.10, 6.44 60.91 06/03/2021 14:11:51 81.09, 6.32 60.86 2.10 63
4 06/03/2021 15:02:20 -81.12, 174.41 119.05 06/03/2021 15:02:30 -81.12, 174.52 119.03 1.96 10
5 06/06/2021 09:47:11 81.09, 72.67 60.56 06/06/2021 09:46:15 81.09, 72.64 60.53 0.64 56
6 06/06/2021 10:36:37 -81.11,-119.34 119.40 06/06/2021 10:36:55 -81.11,-119.50 119.41 2.65 18
7 06/09/2021 05:21:26 81.09, 139.23 60.31 06/09/2021 05:20:37 81.10, 139.31 60.30 1.66 49
8 06/09/2021 06:10:52 -81.12, -52.76 119.64 06/09/2021 06:11:17 -81.12, -52.79 119.63 0.42 25
9 06/12/2021 00:55:42 81.10,-154.25 60.10 06/12/2021 00:55:01 81.10,-154.41 60.07 2.76 41



Historial Predications of SNOs between LANDSAT-8 and METOP-B
